JST295 NZAA-NZQN

Flight info

Callsign JST295
Flight time N/A
Altitude 36000
Route KAPAI Y320 DOVOT
Aircraft A320/M-SDE3FGHIRWY/LB1

Departure

Time 2026-04-30 22:48
Airport Auckland International Airport (NZAA)

Arrival

Time N/A
Airport Queenstown Airport (NZQN)
Time Latitude Longitude Altitude Speed Heading
2026-04-30 21:49 -37.00724 174.79053 31 ft 0 kts 341°
2026-04-30 22:20 -37.00728 174.79055 25 ft 3 kts 341°
2026-04-30 22:20 -37.00753 174.79065 28 ft 4 kts 343°
2026-04-30 22:21 -37.00778 174.79076 30 ft 4 kts 331°
2026-04-30 22:21 -37.00794 174.79092 28 ft 3 kts 260°
2026-04-30 22:21 -37.00793 174.79096 27 ft 0 kts 251°
2026-04-30 22:24 -37.00795 174.79090 28 ft 2 kts 251°
2026-04-30 22:24 -37.00802 174.79066 25 ft 4 kts 251°
2026-04-30 22:24 -37.00813 174.79024 26 ft 6 kts 251°
2026-04-30 22:24 -37.00829 174.78965 25 ft 8 kts 251°
2026-04-30 22:25 -37.00850 174.78889 26 ft 10 kts 251°
2026-04-30 22:25 -37.00887 174.78755 25 ft 33 kts 250°
2026-04-30 22:25 -37.00973 174.78446 27 ft 37 kts 250°
2026-04-30 22:25 -37.01085 174.78341 29 ft 20 kts 229°
2026-04-30 22:26 -37.01189 174.77985 27 ft 24 kts 251°
2026-04-30 22:26 -37.01247 174.77782 27 ft 26 kts 250°
2026-04-30 22:26 -37.01306 174.77561 27 ft 28 kts 251°
2026-04-30 22:27 -37.01363 174.77353 26 ft 9 kts 251°
2026-04-30 22:27 -37.01367 174.77340 27 ft 0 kts 250°
2026-04-30 22:43 -37.01368 174.77334 26 ft 2 kts 250°
2026-04-30 22:43 -37.01387 174.77270 27 ft 6 kts 251°
2026-04-30 22:44 -37.01425 174.77136 26 ft 10 kts 242°
2026-04-30 22:45 -37.01688 174.76855 28 ft 18 kts 271°
2026-04-30 22:45 -37.01724 174.76738 27 ft 8 kts 142°
2026-04-30 22:46 -37.01686 174.76884 30 ft 3 kts 71°
2026-04-30 22:47 -37.01441 174.77772 26 ft 114 kts 71°
2026-04-30 22:47 -37.00755 174.80262 388 ft 169 kts 74°
2026-04-30 22:48 -36.99985 174.83098 1605 ft 176 kts 71°
2026-04-30 22:49 -36.98584 174.88118 2790 ft 240 kts 71°
2026-04-30 22:49 -36.96849 174.94357 5280 ft 261 kts 71°
2026-04-30 22:50 -36.95870 175.03227 8729 ft 275 kts 119°
2026-04-30 22:51 -36.98974 175.05961 10475 ft 289 kts 157°
2026-04-30 22:51 -37.03159 175.07369 11053 ft 336 kts 174°
2026-04-30 22:52 -37.05529 175.07177 11711 ft 348 kts 188°
2026-04-30 22:52 -37.09927 175.04568 13255 ft 364 kts 218°
2026-04-30 22:53 -37.13669 175.00218 14811 ft 370 kts 221°
2026-04-30 22:53 -37.17473 174.95759 16160 ft 377 kts 221°
2026-04-30 22:53 -37.19394 174.93509 16823 ft 381 kts 221°
2026-04-30 22:54 -37.23306 174.88922 18113 ft 388 kts 221°
2026-04-30 22:55 -37.29264 174.81920 19970 ft 397 kts 221°
2026-04-30 22:55 -37.33317 174.77146 21233 ft 403 kts 222°
2026-04-30 22:56 -37.37431 174.72282 22404 ft 410 kts 221°
2026-04-30 22:56 -37.43756 174.64802 24084 ft 420 kts 221°
2026-04-30 22:57 -37.48011 174.59761 25098 ft 426 kts 222°
2026-04-30 22:57 -37.52373 174.54629 26084 ft 432 kts 218°
2026-04-30 22:58 -37.57486 174.50673 27009 ft 434 kts 201°
2026-04-30 22:59 -37.65936 174.46115 28283 ft 446 kts 201°
2026-04-30 22:59 -37.74541 174.41423 29586 ft 455 kts 201°